Погода в Аинази

Погода в Аинази : погода сейчас, прогноз погоды и архив. Всё, что Вы хотите узнать о погоде в Аинази!

Поиск расширенной информации на нашем сайте:

Другие новости

Новости СМИ2

Главная страница сайта

Новости сайта

03.07.2017

Напоминаем, что на нашем специализированном сайте Метеоцентр.Азия вы можете получить высокодетализированные автоматические прогнозы погоды по пунктам России, СНГ и мира в авиационном формате (включающие направление и скорость ветра, видимость, явления погоды, количество и форму облачности, нижнюю и верхнюю границу облачности).

Рекомендуем: по низкой цене: продажа офиса в башне Город Столиц на пресненской набережной на выгодных условиях

Погода в Аинази - сегодня

Время (UTC), дата Ветер
(°,м/с) 
Видим.   Явления Облачность Т
(°С)
Тd
(°С)
f(%) Тe
(°С)
Pmin
(гПа)
dP
(гПа)
Po
(мм)
O2
(г/м3)
Тmin Tmax R s Состояние
почвы
06 01.10.17 110 (В) 3-4  н/о    н/о 
+8.7 +5.1 78 +8  1031.6  0.2  773  301           
15 02.10.17 140 (ЮВ) 6-9  н/о    н/о 
+10 +4.3 68 +8  1018.3  -3.1  763  296           
00 03.10.17 150 (ЮВ) 6-10  н/о    н/о 
+8 +3.6 74 +6  1011  -3  758  296           
03 03.10.17 150 (ЮВ) 7-12  н/о    н/о 
+8 +4.5 79 +6  1008.7  756  295           
09 03.10.17 160 (Ю) 7-10  н/о    н/о 
+7.4 +6.5 94 +5  1006.6  -0.5  754  295           
00 04.10.17 190 (Ю) 6-9  н/о    н/о 
+11.9 +10.6 92 +13  1004.3  753  289           
18 05.10.17 130 (ЮВ) 1-1  н/о    н/о 
+2.7 +2.6 99 +3  987.4  1.1  740  295           
15 06.10.17 100 (В) 1-1  н/о    н/о 
+10.1 +8.9 92 +11  995.2  746  288           
00 07.10.17 300 (СЗ) 3-5  н/о    н/о 
+9.7 +6.9 83 +9  999.8  749  290           
18 07.10.17 160 (Ю) 4-6  н/о    н/о 
+9.1 +8 93 +8  1001.4  -0.8  751  291           
09 09.10.17 080 (В) 4-5  н/о    н/о 
+5.4 +4.9 97 +4  1002.3  751  296           
00 10.10.17 320 (СЗ) 2-3  н/о    н/о 
+8.4 +7.2 92 +8  997.2  -1  747  291           
06 10.10.17 240 (ЮЗ) 3-6  н/о    н/о 
+8.9 +7.5 91 +8  995.6  -0.4  746  290           
06 11.10.17 270 (З) 6-11  н/о    н/о 
+10.3 +3.2 61 +9  999.9  749  290           
21 11.10.17 300 (СЗ) 2-4  н/о    н/о 
+8.5 +7.5 93 +9  1006.3  1.1  754  293           
03 12.10.17 230 (ЮЗ) 3-5  н/о    н/о 
+10 +7.3 83 +10  1005.4  753  292           
06 12.10.17 160 (Ю) 3-5  н/о    н/о 
+8.6 +8.1 97 +8  1003.8  -1.5  752  292           
15 12.10.17 180 (Ю) 6-10  н/о    н/о 
+12 +11 94 +14  997.5  748  286           
21 12.10.17 200 (Ю) 5-9  н/о    н/о 
+11.4 +10.1 92 +11  994.3  745  286           
12 14.10.17 170 (Ю) 4-7  н/о    н/о 
+8.4 +7.8 96 +7  1010.5  -2.6  757  295           
12 15.10.17 290 (З) 3-5  н/о    н/о 
+12.9 +10.6 86 +15  1015.9  761  291           
06 16.10.17 200 (Ю) 5-10  н/о    н/о 
+11.8 +10.9 94 +13  1012.7  -2.1  759  291           
12 16.10.17 240 (ЮЗ) 5-9  н/о    н/о 
+13 +12 94 +16  1010.7  -0.8  757  289           
21 16.10.17 310 (СЗ) 3-5  н/о    н/о 
+11.4 +8.4 82 +11  1014.6  760  293           
18 17.10.17 230 (ЮЗ) 4-7  н/о    н/о 
+12.8 +11.8 94 +15  1007.7  755  288           
Время (UTC), дата Ветер
(°,м/с) 
Видим.   Явления Облачность Т
(°С)
Тd
(°С)
f(%) Тe
(°С)
Pmin
(гПа)
dP
(гПа)
Po
(мм)
O2
(г/м3)
Тmin Tmax R s Состояние
почвы

Для получения пояснительной информации подведите курсор к названию столбца.

ПОГОДА в Аинази - архив

Всё, что Вы хотите узнать о погоде в Аинази - удобно и подробно!

Выберите нужную дату (начиная с 1 января 2015* года) и нажмите кнопку "Найти".
Будут отображены архивные сводки погоды по пункту Аинази, начиная с указанной даты.


Отображать данные в формате CSV (для использования в таблицах Excel)


Внимание! Наш архив погоды предназначен исключительно для личного некоммерческого использования в познавательных целях. Если Вам необходимы официальные справки о состоянии погоды (для производственных, юридических, коммерческих и т.п. целей), обращайтесь в органы Росгидромета.

*Примечание: данная дата относится к архиву по метеостанциям СССР (Россия, СНГ, Балтия).
Архив по метеостанциям Зарубежной Европы и Азии (кроме Китая) хранится 10 дней, по другим регионам земного шара (Китай, Африка, Америка, Австралия, Океания) - 1 день.

Аинази - район местоположения метеостанции


Название, широта, долгота, высота метеостанции:
Аинази 57.9°ш. 24.4°д. 5 м над ур. моря [Латвия]

Дополнительная информация

В oтличие oт бoльшинства пoгoдных сайтoв мы публикуем пoдрoбную метеoинфoрмацию в детальнoм прoфессиoнальнoм фoрмате.

Характеристики температуры и влажнoсти вoздуха измеряются на высoте 2 м в тени вдали oт зданий и деревьев.
Скoрoсть ветра измеряется на высoте 10 м (на урoвне рoста челoвека скoрoсть ветра ниже в 1.5-2 раза). Если метеoстанция нахoдится в гoрoде или в лесу, тo скoрoсть ветра занижена на 2-4 м/с пo сравнению с oткрытым местoм. Скoрoсть ветра над акватoриями крупных рек и oзёр, а также на вершинах хoлмoв на 2-5 м/с выше, чем в oбычных услoвиях.
Атмoсфернoе давление в разных тoчках местнoсти мoжет значительнo oтличаться oт давления на метеoстанции, в зависимoсти oт услoвий рельефа (при пoдъёме на 10 м давление пoнижается примернo на 1 мм рт.ст.).